Regional Weather Roundup
Issued by NWS

Home | Current Version | Previous Version | Graphics & Text | Print | Product List | Glossary On
Versions: 1 2 3 4 5 6 7 8 9 10 11 12 13 14 15 16 17 18 19 20 21 22 23 24 25 26 27 28 29 30 31 32 33 34 35 36 37 38 39 40 41 42 43 44 45 46 47 48 49 50
000
ASUS43 KBIS 251110
RWRND

NORTH DAKOTA REGIONAL WEATHER ROUNDUP
NATIONAL WEATHER SERVICE BISMARCK ND
600 AM CDT THU MAY 25 2017

NOTE: "FAIR" INDICATES FEW OR NO CLOUDS BELOW 12,000 FEET WITH NO
SIGNIFICANT WEATHER AND/OR OBSTRUCTIONS TO VISIBILITY.


NDZ001>003-009>011-017-251200-
NORTHWEST NORTH DAKOTA

CITY           SKY/WX    TMP DP  RH WIND       PRES   REMARKS
WILLISTON      FAIR      48  46  93 S5        29.36F
MINOT          FAIR      51  49  92 SE7       29.38S
MINOT AFB      CLOUDY    51  50  96 S10       29.37F
$$

NDZ018>021-031>035-040>046-251200-
SOUTHWEST NORTH DAKOTA

CITY           SKY/WX    TMP DP  RH WIND       PRES   REMARKS
BISMARCK       FAIR      51  46  83 S7        29.42R
DICKINSON      FOG       40  40 100 W5        29.40R VSB<1/4
GARRISON         N/A     50  48  93 S13       29.39R
HETTINGER ARPT CLOUDY    41  40  96 W5        29.44R FOG
$$

NDZ004>008-012>016-024-026-027-054-251200-
NORTHEAST NORTH DAKOTA

CITY           SKY/WX    TMP DP  RH WIND       PRES   REMARKS
GRAND FORKS    MOCLDY    50  43  77 SE13      29.56F
GRND FRKS AFB  PTCLDY    49  42  77 SE8       29.56F
DEVILS LAKE    MOCLDY    51  44  77 SE17      29.48S
$$

NDZ022-023-025-028>030-036>039-047>053-251200-
SOUTHEAST NORTH DAKOTA

CITY           SKY/WX    TMP DP  RH WIND       PRES   REMARKS
FARGO          CLOUDY    51  43  74 SE16      29.57F
JAMESTOWN      MOCLDY    50  43  77 SE22G30   29.45S
$$




USA.gov is the U.S. government's official web portal to all federal, state and local government web resources and services.